Weather History for Yakutat, AK

Change the Weather History Date:

Monday, April 21, 2014

  Actual Average Record
Temperature  
Mean Temperature 42 °F 39 °F  
Max Temperature 56 °F 47 °F 62 °F (1994)
Min Temperature 27 °F 31 °F 16 °F (1972)
Degree Days  
Heating Degree Days 23 26  
Month to date heating degree days 601 593  
Since 1 July heating degree days 7493 7744  
Cooling Degree Days 0    
Month to date cooling degree days 0  
Year to date cooling degree days 0  
Moisture  
Dew Point 34 °F    
Average Humidity 0    
Maximum Humidity 0    
Minimum Humidity 0    
Precipitation  
Precipitation 0.00 in 0.29 in 1.68 in (1980)
Month to date precipitation 3.15 6.57  
Year to date precipitation 34.26 42.13  
Snow  
Snow 0.00 in 0.30 in 5.00 in (1955)
Month to date snowfall 5.8 8.9  
Since 1 July snowfall 109.0 138.3  
Snow Depth T in    
Sea Level Pressure  
Sea Level Pressure 29.97 in    
Wind  
Wind Speed 3 mph (SSE)    
Max Wind Speed 17 mph    
Max Gust Speed 26 mph    
Visibility 10 miles    
Events      
T = Trace of Precipitation, MM = Missing Value Source: NWS Daily Summary

Daily Weather History Graph

Daily Weather History Graph

Search for Another Location

Airport:

Trip Planner

Search our weather history database for the weather conditions in past years. The results will help you decide how hot, cold, wet, or windy it might be!

Date:

Astronomy

Apr. 21, 2014 Rise Set
Actual Time 5:45 AM AKDT 8:50 PM AKDT
Civil Twilight 4:58 AM AKDT 9:38 PM AKDT
Nautical Twilight 3:53 AM AKDT 10:44 PM AKDT
Astronomical Twilight 2:03 AM AKDT 12:45 AM AKDT
Moon 2:47 AM AKDT (4/21) 11:03 AM AKDT (4/21)
Length of Visible Light 16h 39m
Length of Day
15h 04m
Waning Gibbous, 56% of the Moon is Illuminated
Apr 21
Waning Gibbous
Apr 21
Last Quarter
Apr 28
New
May 6
First Quarter
May 14
Full

Hourly Weather History & Observations

Time (AKDT) Temp. Windchill Dew Point Humidity Pressure Visibility Wind Dir Wind Speed Gust Speed Precip Events Conditions
12:53 AM 28.9 °F - 27.0 °F 92% 29.86 in 10.0 mi Calm Calm - N/A   Clear
1:53 AM 28.0 °F - 27.0 °F 96% 29.87 in 10.0 mi Calm Calm - N/A   Clear
2:53 AM 28.9 °F - 27.0 °F 92% 29.87 in 10.0 mi Calm Calm - N/A   Clear
3:53 AM 28.0 °F - 26.1 °F 92% 29.88 in 10.0 mi Calm Calm - N/A   Clear
4:53 AM 28.0 °F - 27.0 °F 96% 29.88 in 10.0 mi Calm Calm - N/A   Overcast
5:53 AM 28.0 °F - 27.0 °F 96% 29.89 in 10.0 mi Calm Calm - N/A   Scattered Clouds
6:53 AM 30.9 °F 26.2 °F 28.9 °F 92% 29.88 in 10.0 mi North 4.6 mph - N/A   Overcast
7:53 AM 39.0 °F - 33.1 °F 79% 29.90 in 10.0 mi Calm Calm - N/A   Clear
8:53 AM 48.0 °F - 33.1 °F 56% 29.90 in 10.0 mi ENE 3.5 mph - N/A   Scattered Clouds
9:53 AM 54.0 °F - 28.9 °F 38% 29.91 in 10.0 mi Calm Calm - N/A   Clear
10:53 AM 55.0 °F - 25.0 °F 31% 29.92 in 10.0 mi SSW 4.6 mph - N/A   Scattered Clouds
11:53 AM 53.1 °F - 34.0 °F 48% 29.94 in 10.0 mi SW 6.9 mph - N/A   Overcast
12:53 PM 48.9 °F - 34.0 °F 56% 29.97 in 10.0 mi SSW 10.4 mph - N/A   Overcast
1:53 PM 50.0 °F - 35.1 °F 57% 29.99 in 10.0 mi South 15.0 mph 25.3 mph N/A   Overcast
2:53 PM 48.9 °F - 36.0 °F 61% 30.03 in 10.0 mi South 9.2 mph 19.6 mph N/A   Overcast
3:53 PM 48.0 °F - 37.0 °F 66% 30.03 in 10.0 mi SE 10.4 mph 19.6 mph N/A   Partly Cloudy
4:53 PM 46.9 °F - 37.9 °F 71% 30.04 in 10.0 mi SSE 11.5 mph 19.6 mph N/A   Mostly Cloudy
5:11 PM 46.4 °F 41.1 °F 39.2 °F 76% 30.04 in 10.0 mi SSE 11.5 mph 19.6 mph N/A   Overcast
5:53 PM 46.0 °F 42.5 °F 39.0 °F 76% 30.04 in 10.0 mi SSE 6.9 mph - N/A   Overcast
6:53 PM 44.1 °F 40.1 °F 39.0 °F 82% 30.04 in 10.0 mi SE 6.9 mph - N/A   Overcast
7:53 PM 44.1 °F 40.1 °F 37.9 °F 79% 30.04 in 10.0 mi SE 6.9 mph - N/A   Overcast
8:53 PM 44.1 °F 42.5 °F 37.9 °F 79% 30.04 in 10.0 mi SE 3.5 mph - N/A   Overcast
9:53 PM 43.0 °F - 37.9 °F 82% 30.04 in 10.0 mi Calm Calm - N/A   Overcast
10:18 PM 42.8 °F - 37.4 °F 81% 30.03 in 10.0 mi Calm Calm - N/A   Overcast
10:48 PM 41.0 °F - 37.4 °F 87% 30.04 in 10.0 mi Calm Calm - N/A   Overcast
10:53 PM 41.0 °F - 37.9 °F 89% 30.04 in 10.0 mi Calm Calm - N/A   Overcast
11:19 PM 41.0 °F - 37.4 °F 87% 30.03 in 10.0 mi Calm Calm - N/A   Overcast
11:53 PM 39.9 °F - 37.9 °F 93% 30.02 in 10.0 mi Calm Calm - N/A   Overcast